Location: M?dhavaram
(16.6948°N, 80.5478°E)
Time: 12:54:52
(UTC+00:00)

Daily predictions for brighter satellites

Satellite Brightness Start Highest point End
(mag) Time Altitude Azimuth Time Altitude Azimuth Time Altitude Azimuth
Cosmos 494 Rocket 4.1 13:24:13 10° S 13:29:08 51° ESE 13:34:03 10° NNE
Cosmos 1076 Rocket 3.7 13:25:20 10° N 13:29:35 79° W 13:33:53 10° S
NOAA 6 4.2 13:25:16 10° S 13:30:21 77° WSW 13:35:28 10° NNW
Cosmos 921 Rocket 3.0 13:29:29 10° S 13:33:55 79° E 13:38:23 10° NNE
ADEOS Rocket 3.4 13:29:29 10° S 13:35:33 77° WSW 13:42:21 10° NNW
Cosmos 192 4.3 13:33:47 10° N 13:38:42 72° ENE 13:43:36 10° SSE
Cosmos 1603 4.2 13:36:30 10° S 13:41:38 38° ESE 13:46:48 10° NE
Resurs 01 Rocket 3.7 13:44:37 10° E 13:45:10 10° ENE 13:45:43 10° ENE
Yuri Rocket 3.1 13:41:30 10° WNW 13:45:47 65° NNE 13:49:24 13° ESE
CZ-4 R/B 2.6 13:44:14 12° ESE 13:46:51 22° ENE 13:49:48 10° NNE
Resurs 1-3 4.2 13:45:41 10° SE 13:49:39 36° ENE 13:53:38 10° N
Landsat 7 3.9 13:49:56 10° S 13:54:37 81° W 13:59:18 10° NNW
Cosmos 2369 Rocket 4.0 13:53:42 10° NE 13:56:27 14° ENE 13:58:20 12° E
Cosmos 1048 Rocket 3.9 13:53:15 10° S 13:58:25 75° ESE 14:03:32 10° NNE
Meteor PRIRODA 3.5 13:55:30 10° S 13:58:54 77° W 14:02:17 10° NNW
GPS 2-14 Rocket1 2.2 14:01:13 10° W 14:04:14 55° SSW 14:05:34 28° SE
Cosmos 1378 4.4 14:01:33 10° SSW 14:04:35 37° W 14:07:38 10° NNW
Hubble Space Telescope 3.2 14:04:36 10° NW 14:07:24 18° N 14:10:12 10° NE
SJ-6B 2.6 14:04:35 15° SSE 14:07:33 62° ENE 14:11:11 10° N
Cosmos 1943 Rocket 2.9 14:02:41 10° NNW 14:08:07 54° WSW 14:13:31 10° S
Cosmos 1464 Rocket 3.9 14:01:59 10° N 14:08:08 68° E 14:14:12 10° SSE
Skynet4D Del rocket 3.9 14:04:45 10° WNW 14:10:34 75° SSW 14:14:53 22° ESE
Cosmos 1943 3.9 14:05:37 10° SSW 14:11:10 57° WNW 14:16:44 10° N
Cosmos 44 3.6 14:09:48 10° N 14:14:01 40° ENE 14:15:41 28° ESE
Meteor 2-6 Rocket 4.2 14:09:15 10° S 14:14:46 57° E 14:20:09 10° NNE
NOSS 3-3 (C) 4.4 14:15:28 25° ESE 14:15:28 25° ESE 14:19:35 10° NE
ATLAS 3B R/B 3.0 14:09:13 10° NNW 14:16:54 60° ENE 14:21:48 23° SE
SPOT 1/Viking Rocket 3.5 14:13:44 16° SSE 14:17:47 65° ENE 14:22:52 10° N
USA 290 3.3 14:25:17 10° NNW 14:28:19 41° WSW 14:29:53 23° SSW
Meteor 1-5 Rocket 4.1 14:24:13 10° N 14:29:50 78° E 14:33:22 23° SSE
Lacrosse 5 1.9 14:25:08 10° NW 14:30:14 75° WSW 14:32:43 30° SSE
Cosmos 1371 Rocket 4.1 14:25:38 10° N 14:30:55 61° ENE 14:33:05 34° SE
Cosmos 1420 Rocket 3.9 14:25:56 10° N 14:31:13 79° ENE 14:33:54 30° SSE
Haruka 4.3 14:03:56 10° WNW 14:33:21 89° SSW 14:36:41 32° ESE
VEP-3 3.4 14:19:55 10° WNW 14:33:22 61° SSW 14:36:17 31° SE
OAO 2 Rocket 3.3 14:34:28 10° NW 14:39:46 82° NNE 14:41:18 47° ESE
GPS 2-17 Rocket1 2.9 14:40:47 10° WNW 14:45:22 85° SSW 14:46:00 66° ESE
Cosmos 2221 4.5 14:41:39 10° SW 14:45:23 29° W 14:49:07 10° NNW
ARIANE DEB (SYLDA) 4.4 14:42:00 10° SW 14:46:17 30° SSE 14:47:24 29° SSE
CZ-4B R/B 3.1 14:47:14 36° S 14:49:30 87° WSW 14:54:48 10° NNW
USA 186 3.1 14:56:31 38° WNW 14:56:31 38° WNW 14:59:08 10° NNW
Cosmos 1842 Rocket 3.8 14:54:53 38° SSW 14:56:26 66° W 15:00:49 10° N
Cosmos 2034 Rocket 4.4 14:52:35 10° NNW 14:58:47 63° W 15:03:03 21° SSW
Delta 202 4.0 14:54:19 10° W 15:00:07 86° N 15:03:06 39° E
Cosmos 1743 3.9 14:58:12 10° N 15:00:20 34° N 15:00:20 34° N
CSL-04 Rocket 3.5 15:02:37 60° S 15:03:37 84° WSW 15:08:54 10° NNW
Meteor 1-27 Rocket 4.1 15:05:13 44° NE 15:05:13 44° NE 15:09:23 10° NNE
Cosmos 1818 3.7 15:01:28 10° SSW 15:06:50 73° WNW 15:12:16 10° NNE
CSL-04 Debris 4.5 15:09:32 47° SSW 15:10:56 63° WSW 15:16:20 10° NNW
Cosmos 1656 Rocket 4.1 15:11:47 10° NNW 15:17:10 57° WSW 15:18:00 51° SW
Cosmos 2297 4.1 15:12:16 10° NNW 15:17:48 56° WSW 15:18:43 50° SW
Resurs 01 Rocket 2.8 15:21:08 38° WSW 15:21:11 38° W 15:25:18 10° NNW
CZ-4 R/B 4.1 15:19:49 10° WSW 15:21:17 12° W 15:22:45 10° WNW
Okean O Rocket 2.7 15:24:39 43° WNW 15:24:39 43° WNW 15:28:19 10° NNW
SeaSat 1 3.2 15:33:05 50° NW 15:33:05 50° NW 15:36:44 10° NNW
USA 229 DEB 3.9 15:27:32 10° NNW 15:35:34 85° ENE 15:36:15 77° SE
USA 229 3.9 15:27:38 10° NNW 15:35:40 85° ENE 15:36:21 77° SE
Cosmos 2369 Rocket 3.0 15:35:08 10° NNW 15:40:08 45° W 15:40:08 45° W
Hubble Space Telescope 3.8 15:46:28 10° NNW 15:47:18 13° NNW 15:47:18 13° NNW
FALCON 9 R/B 4.5 16:13:52 10° NW 16:20:56 49° NE 16:25:25 40° ENE
USA 59 Rocket 3.4 16:46:45 10° N 16:47:09 12° N 16:47:09 12° N
ATLAS 2AS CENTAUR R/B 4.4 20:38:06 10° N 20:43:23 25° ENE 20:48:35 10° ESE
Cosmos 2219 Rocket 4.3 20:42:22 10° N 20:44:29 22° NNE 20:44:29 22° NNE
Cosmos 2227 Rocket 3.3 21:14:20 40° NE 21:14:20 40° NE 21:18:13 10° NNE
Atlas Centaur 2 4.2 21:17:51 16° N 21:17:51 16° N 21:19:45 10° NNE
Envisat 4.3 21:17:50 10° NNE 21:21:20 37° ENE 21:21:20 37° ENE
COSMOS 2428 4.1 21:18:42 10° N 21:23:49 35° ENE 21:26:54 21° ESE
USA 234 4.5 21:20:34 10° ESE 21:26:34 39° NE 21:32:33 10° NNW
Cosmos 2297 Rocket 3.7 21:37:30 26° NNW 21:37:30 26° NNW 21:40:21 10° N
CZ-2C R/B 3.5 21:33:42 10° NNE 21:37:15 37° ENE 21:37:15 37° ENE
IRS-1D 4.4 21:41:30 10° NNE 21:46:27 43° E 21:47:15 40° SE
Delta 128 4.5 21:47:09 73° S 21:47:27 75° SSE 21:53:55 10° ENE
Sakura Rocket 4.2 21:46:53 69° SSW 21:47:41 75° SSE 21:54:02 10° ENE
Nadezhda 3 Rocket 4.2 21:43:08 10° NNW 21:48:13 54° NW 21:48:13 54° NW
CZ-4 R/B 4.4 21:44:43 10° N 21:48:23 53° N 21:48:23 53° N
Cosmos 2366 rocket 3.9 21:52:01 70° S 21:52:50 90° E 21:59:12 10° N
CZ-4C R/B 4.0 21:58:20 12° NNW 21:58:20 12° NNW 21:59:01 10° NNW
SL-24 DEB 4.4 21:56:24 10° N 22:00:16 65° NNE 22:00:16 65° NNE
Cosmos 2341 Rocket 4.1 22:06:05 51° W 22:06:05 51° W 22:11:59 10° N
PAYLOAD A 3.9 22:03:08 10° NNE 22:08:12 85° ESE 22:09:05 62° S
Cosmos 1455 Rocket 3.1 22:09:00 10° N 22:12:50 65° NW 22:12:50 65° NW
ASTRO E2 3.6 22:16:56 35° N 22:16:56 35° N 22:19:32 10° NE
Cosmos 2084 Rocket 3.4 22:17:31 71° NW 22:17:31 71° NW 22:21:45 10° NNE
GPS 2-12 Rocket1 3.0 22:17:44 67° SSE 22:17:44 67° SSE 22:22:11 10° E
BlueWalker 3 3.9 22:19:59 18° NNW 22:19:59 18° NNW 22:21:44 10° N
SL-16 R/B 3.0 22:24:15 38° W 22:24:15 38° W 22:29:55 10° NW
Thor Agena Rocket 3.5 22:19:11 10° N 22:24:25 71° WNW 22:26:01 45° SW
Cosmos 372 Rocket 3.9 22:24:13 37° S 22:26:20 83° ESE 22:31:33 10° NNE
NOSS 3-2 (A) 2.7 22:25:54 51° SW 22:27:07 82° WNW 22:32:15 10° NNE
ASTEX 1 3.4 22:27:35 50° SW 22:28:13 54° W 22:33:00 10° NNW
ATLAS 2A CENTAUR R/B 3.7 22:28:40 11° N 22:29:01 11° N 22:29:46 10° NNE
CENTAUR R/B 2.5 22:31:37 36° W 22:32:29 39° WNW 22:37:47 10° N
ATLAS 2AS CENTAUR R/B 3.0 22:28:12 10° NW 22:34:06 36° WSW 22:40:00 10° S
Cosmos 2263 Rocket 2.1 22:33:55 35° SSW 22:36:22 70° WNW 22:41:56 10° N
NOSS 0 Rocket 3.9 22:35:53 10° NNW 22:42:02 66° WSW 22:48:12 10° S
Cosmos 1437 Rocket 3.5 22:39:41 14° S 22:42:53 52° E 22:46:43 10° NNE
Cosmos 2082 3.7 22:40:31 30° SW 22:43:18 63° WNW 22:48:53 10° N
Cosmos 292 Rocket 4.4 22:43:24 33° W 22:44:12 35° WNW 22:48:31 10° N
H-2A R/B 2.2 22:41:52 10° NNE 22:47:16 81° ESE 22:52:33 10° S
GPS 2-15 Rocket1 4.1 22:46:09 26° SSW 22:47:43 33° SSE 22:51:50 10° E
DELTA 2 R/B (1) 3.9 22:47:54 21° W 22:51:07 39° SW 22:56:15 10° SSE
OAO 3 Rocket 4.1 22:51:07 27° SW 22:51:17 27° SW 22:55:25 10° SSE
Cosmos 858 Rocket 4.4 22:50:28 18° SSW 22:54:26 77° WNW 22:59:41 10° N
Cosmos 2219 4.3 22:53:47 23° W 22:55:39 27° WNW 23:00:21 10° NNW
GOES 2 Rocket 4.2 22:52:48 22° W 22:56:40 65° NNW 23:04:18 10° ENE
Cosmos 2227 Rocket 4.1 22:56:10 12° WNW 22:56:50 12° WNW 22:58:52 10° NW
Cosmos 1934 Rocket 4.4 22:52:14 10° S 22:58:17 65° E 23:04:27 10° NNE
Cosmos 2239 Rocket 4.5 22:54:51 10° SSW 23:01:02 64° W 23:07:09 10° N
Cosmos 2237 Rocket 2.1 22:59:39 10° NNW 23:05:15 66° WSW 23:10:48 10° S
Atlas Centaur 2 4.0 23:04:14 10° NNW 23:06:16 13° N 23:08:11 10° NE
ARIANE 5 R/B 3.5 23:04:56 13° SSW 23:06:37 18° SSE 23:11:32 10° ESE
COSMOS 2428 4.0 23:03:57 10° WNW 23:07:41 18° WSW 23:08:36 17° WSW
CBERS-1 4.0 23:02:43 10° N 23:07:47 67° WNW 23:12:50 10° SSW
USA 234 3.7 23:03:30 10° S 23:09:22 35° SW 23:15:15 10° WNW
SL-24 R/B - RUBIN 2 4.5 23:05:58 10° NW 23:11:41 43° WSW 23:16:46 10° S
Cosmos 1980 3.9 23:09:48 10° NNW 23:15:12 47° WSW 23:20:35 10° S
CZ-2C R/B 4.3 23:15:18 10° WNW 23:15:42 10° WNW 23:16:05 10° WNW
CZ-3A R/B 3.7 23:10:24 10° W 23:16:04 21° SW 23:18:48 10° S
Cosmos 1544 Rocket 4.4 23:18:02 10° NNW 23:21:55 30° W 23:25:47 10° SSW
USA 238 DEB 4.1 23:19:19 10° S 23:25:09 55° ESE 23:31:09 10° NE
USA 238 4.1 23:19:24 10° S 23:25:13 54° ESE 23:31:12 10° NE
SL-08 RB Rocket 4.3 23:25:09 10° NNE 23:29:30 58° E 23:33:52 10° S
Geosat 3.9 23:26:40 10° SSE 23:31:38 70° WSW 23:36:37 10° NNW
SWIFT 4.4 23:34:39 10° SSW 23:36:52 14° SSE 23:39:05 10° ESE
ARGOS 3.2 23:34:29 10° N 23:39:51 72° WNW 23:45:13 10° SSW
FUSE 4.1 23:37:31 10° WSW 23:42:50 71° SSE 23:48:08 10° ENE
H-2A R/B 3.0 23:40:10 10° N 23:43:04 33° WNW 23:46:00 10° SW
IRS-P3 4.3 23:39:39 10° NNE 23:44:59 82° ESE 23:50:18 10° S
Delta 2 Rocket 3.9 23:41:36 10° SW 23:46:22 71° SE 23:51:19 10° ENE
Delta 2 Rocket 4.1 23:41:58 10° WNW 23:48:05 76° NNE 23:54:08 10° ESE
Cosmos 1605 Rocket 4.1 23:42:28 10° S 23:48:50 78° W 23:55:09 10° N
